Saranac Lake, NY

10:07 AM EDT on May 24, 2017 (GMT -0400)
Adirondack Regional

Weather History for KSLK - September, 2013

Change the Weather History Date:

Sunday, September 1, 2013

  Actual Average Record
Temperature  
Mean Temperature 69 °F 59 °F  
Max Temperature 78 °F 72 °F 87 °F (2010)
Min Temperature 60 °F 46 °F 31 °F (1967)
Degree Days  
Heating Degree Days 0 7  
Month to date heating degree days 7  
Since 1 July heating degree days 247  
Cooling Degree Days 4 1  
Month to date cooling degree days 4 1  
Year to date cooling degree days 175 108  
Growing Degree Days 18 (Base 50)    
Moisture  
Dew Point 62 °F    
Average Humidity 80    
Maximum Humidity 100    
Minimum Humidity 60    
Precipitation  
Precipitation 0.00 in 0.11 in 1.68 in (1954)
Month to date precipitation 0.00 0.11  
Year to date precipitation 28.88 24.65  
Sea Level Pressure  
Sea Level Pressure 29.87 in    
Wind  
Wind Speed 3 mph (ENE)    
Max Wind Speed 12 mph    
Max Gust Speed 14 mph    
Visibility 6 miles    
Events Fog    
T = Trace of Precipitation, MM = Missing Value Source: NWS Daily Summary

Daily Weather History Graph

Daily Weather History Graph

Search for Another Location

Airport or City:

Trip Planner

Search our weather history database for the weather conditions in past years. The results will help you decide how hot, cold, wet, or windy it might be!

Date:

Astronomy

Sep. 01, 2013 Rise Set
Actual Time 6:19 AM EDT 7:32 PM EDT
Civil Twilight 5:49 AM EDT 8:02 PM EDT
Nautical Twilight 5:13 AM EDT 8:38 PM EDT
Astronomical Twilight 4:35 AM EDT 9:16 PM EDT
Moon 2:33 AM EDT (9/1) 5:13 PM EDT (9/1)
Length of Visible Light 14h 12m
Length of Day
13h 12m
Waning Crescent, 14% of the Moon is Illuminated
Sep 1
Waning Crescent
Sep 5
New
Sep 12
First Quarter
Sep 19
Full
Sep 26
Last Quarter

Hourly Weather History & Observations

Time (EDT) Temp. Dew Point Humidity Pressure Visibility Wind Dir Wind Speed Gust Speed Precip Events Conditions
12:26 AM 66.2 °F 64.4 °F 94% 29.86 in 8.0 mi Calm Calm - N/A   Mostly Cloudy
12:51 AM 64.0 °F 64.0 °F 100% 29.84 in 5.0 mi Calm Calm - N/A   Mostly Cloudy
1:09 AM 64.4 °F 64.4 °F 100% 29.86 in 3.0 mi Calm Calm - N/A   Overcast
1:42 AM 64.4 °F 64.4 °F 100% 29.85 in 8.0 mi Calm Calm - N/A   Overcast
1:51 AM 64.9 °F 64.0 °F 97% 29.83 in 7.0 mi Calm Calm - N/A   Overcast
2:05 AM 64.4 °F 64.4 °F 100% 29.85 in 8.0 mi Calm Calm - N/A   Overcast
2:51 AM 64.9 °F 63.0 °F 93% 29.83 in 8.0 mi Calm Calm - N/A   Overcast
3:04 AM 64.4 °F 62.6 °F 94% 29.86 in 7.0 mi Calm Calm - N/A   Overcast
3:08 AM 62.6 °F 62.6 °F 100% 29.86 in 7.0 mi Calm Calm - N/A   Overcast
3:37 AM 62.6 °F 62.6 °F 100% 29.85 in 3.0 mi Calm Calm - N/A   Overcast
3:51 AM 63.0 °F 63.0 °F 100% 29.83 in 4.0 mi Calm Calm - N/A   Overcast
4:03 AM 62.6 °F 62.6 °F 100% 29.85 in 1.5 mi Calm Calm - N/A   Overcast
4:18 AM 62.6 °F 62.6 °F 100% 29.85 in 1.8 mi Calm Calm - N/A   Overcast
4:44 AM 60.8 °F 60.8 °F 100% 29.86 in 0.5 mi Calm Calm - N/A Fog Fog
4:58 AM 60.8 °F 60.8 °F 100% 29.86 in 0.2 mi Calm Calm - N/A Fog Fog
5:20 AM 60.8 °F 60.8 °F 100% 29.87 in 0.5 mi Calm Calm - N/A Fog Fog
5:28 AM 60.8 °F 60.8 °F 100% 29.87 in 0.2 mi Calm Calm - N/A Fog Fog
5:47 AM 60.8 °F 60.8 °F 100% 29.88 in 0.8 mi Calm Calm - N/A   Overcast
5:51 AM 61.0 °F 61.0 °F 100% 29.87 in 1.0 mi Calm Calm - N/A   Overcast
6:10 AM 60.8 °F 60.8 °F 100% 29.89 in 0.5 mi Calm Calm - N/A Fog Fog
6:17 AM 60.8 °F 60.8 °F 100% 29.89 in 1.0 mi Calm Calm - N/A   Overcast
6:24 AM 60.8 °F 60.8 °F 100% 29.89 in 3.0 mi Calm Calm - N/A   Overcast
6:34 AM 60.8 °F 60.8 °F 100% 29.89 in 1.5 mi Calm Calm - N/A   Overcast
6:41 AM 60.8 °F 60.8 °F 100% 29.89 in 0.2 mi Calm Calm - N/A Fog Fog
6:51 AM 61.0 °F 61.0 °F 100% 29.88 in 0.2 mi Calm Calm - N/A Fog Fog
6:59 AM 60.8 °F 60.8 °F 100% 29.90 in 0.8 mi Calm Calm - N/A   Overcast
7:07 AM 62.6 °F 60.8 °F 94% 29.90 in 2.0 mi Calm Calm - N/A   Overcast
7:33 AM 62.6 °F 62.6 °F 100% 29.91 in 3.0 mi Calm Calm - N/A   Overcast
7:51 AM 63.0 °F 62.1 °F 97% 29.88 in 3.0 mi Calm Calm - N/A   Overcast
8:24 AM 64.4 °F 62.6 °F 94% 29.90 in 5.0 mi Calm Calm - N/A   Mostly Cloudy
8:44 AM 66.2 °F 62.6 °F 88% 29.90 in 7.0 mi Calm Calm - N/A   Mostly Cloudy
8:51 AM 66.9 °F 63.0 °F 87% 29.88 in 8.0 mi Calm Calm - N/A   Mostly Cloudy
9:03 AM 68.0 °F 62.6 °F 83% 29.90 in 10.0 mi Variable 4.6 mph - N/A   Overcast
9:13 AM 68.0 °F 62.6 °F 83% 29.91 in 9.0 mi ESE 5.8 mph - N/A   Overcast
9:51 AM 68.0 °F 62.1 °F 81% 29.89 in 9.0 mi Calm Calm - N/A   Overcast
10:02 AM 69.8 °F 62.6 °F 78% 29.91 in 10.0 mi ENE 5.8 mph - N/A   Overcast
10:51 AM 71.1 °F 63.0 °F 75% 29.88 in 10.0 mi Calm Calm - N/A   Overcast
11:19 AM 73.4 °F 62.6 °F 69% 29.90 in 10.0 mi ENE 3.5 mph - N/A   Scattered Clouds
11:51 AM 72.0 °F 61.0 °F 68% 29.88 in 10.0 mi NE 5.8 mph - N/A   Scattered Clouds
12:51 PM 75.0 °F 62.1 °F 64% 29.87 in 10.0 mi NE 5.8 mph - N/A   Mostly Cloudy
1:51 PM 73.9 °F 62.1 °F 66% 29.86 in 10.0 mi North 3.5 mph - N/A   Overcast
2:51 PM 75.0 °F 62.1 °F 64% 29.85 in 10.0 mi ENE 6.9 mph - N/A   Mostly Cloudy
3:51 PM 77.0 °F 62.1 °F 60% 29.83 in 10.0 mi East 10.4 mph - N/A   Clear
4:51 PM 77.0 °F 62.1 °F 60% 29.83 in 10.0 mi East 5.8 mph - N/A   Partly Cloudy
5:51 PM 75.0 °F 62.1 °F 64% 29.83 in 10.0 mi East 9.2 mph - N/A   Scattered Clouds
6:51 PM 73.0 °F 63.0 °F 71% 29.83 in 10.0 mi East 6.9 mph - N/A   Clear
7:51 PM 70.0 °F 62.1 °F 76% 29.84 in 10.0 mi ENE 4.6 mph - N/A   Scattered Clouds
8:51 PM 66.9 °F 62.1 °F 84% 29.85 in 10.0 mi East 4.6 mph - N/A   Clear
9:51 PM 64.9 °F 61.0 °F 87% 29.84 in 10.0 mi ENE 3.5 mph - N/A   Clear
10:51 PM 64.0 °F 61.0 °F 90% 29.86 in 10.0 mi Calm Calm - N/A   Partly Cloudy
11:51 PM 63.0 °F 61.0 °F 93% 29.83 in 10.0 mi North 3.5 mph - N/A   Mostly Cloudy